STARLINK-1687 (46541 NORAD) Tracking and Keplerian Element Data

This shows tracking and keplerian element data for the satellite.

Feedback or suggestion? Click here.




ElementValue
Catalog46541
NameSTARLINK-1687
Epoch Orbit177
Epoch Day304.91667824
Epoch Year2020
RAAN320.3384
Inclination52.9881
Eccentricity0.0001161
Argument of Perigee66.0654
Mean Anonmoly219.7985
Mean Motion15.63049301
Decay Rate-0.01012527
L11 46541U 20070K 20304.91667824 -.01012527 00000-0 -12138-1 0 9997
L22 46541 52.9881 320.3384 0001161 66.0654 219.7985 15.63049301 1772

Live tracking and technical data element details for STARLINK-1687 (NORAD 46541). STARLINK-1687 can be tracked NOW for your location showing map with azimuth and elevation plus other details from your city location.

Track the satellite on the map from your city or location and see movement details for azimuth, elevation, latitude, longitude, range, height, and movement on the map or in text.







IsCatalogInMostPopularTable: catalog: 46541, numindb: 3
Update: records affected: 1



GetName: 46541 STARLINK-1687

Hit Count: updated at: Sat, 31 Oct 2020 11:41:16 GMT